This demonstration page uses our WeatherBlox Daily Observations layout. Learn more.

Left ArrowRight Arrow

Hourly Observations for May 12, 2016

Temp ( °F °C ) Dew Point ( °F °C ) Humidity (%) Winds ( mph kmh ) Pressure ( in mb ) Visibility ( mi km ) Precip ( " mm )
12:54 am 00:54 Clear 57 13.9 42 5.6 58 58 NNW 12 19 30.16 1021 10 16 0.00 0.00
1:54 am 01:54 Clear 55 12.8 42 5.6 62 62 NNW 8 13 30.15 1021 10 16 0.00 0.00
2:54 am 02:54 Clear 54 12.2 42 5.6 64 64 WSW 3 6 30.16 1022 10 16 0.00 0.00
3:54 am 03:54 Clear 54 12.2 43 6.1 67 67 W 5 7 30.16 1021 10 16 0.00 0.00
4:54 am 04:54 Clear 52 11.1 43 6.1 72 72 WNW 3 6 30.16 1021 10 16 0.00 0.00
5:54 am 05:54 Clear 51 10.6 43 6.1 74 74 WNW 5 7 30.18 1022 10 16 0.00 0.00
6:54 am 06:54 Sunny 51 10.6 42 5.6 71 71 WNW 7 11 30.19 1023 10 16 0.00 0.00
7:54 am 07:54 Sunny 55 12.8 41 5 59 59 NW 12 19 30.20 1023 10 16 0.00 0.00
8:54 am 08:54 Sunny 58 14.4 39 3.9 50 50 NW 13 20 30.21 1023 10 16 0.00 0.00
9:54 am 09:54 Sunny 60 15.6 38 3.3 44 44 NNW 18 30 30.21 1023 10 16 0.00 0.00
10:54 am 10:54 Sunny 63 17.2 39 3.9 41 41 NW 18 30 30.21 1023 9 14 0.00 0.00
11:54 am 11:54 Sunny 64 17.8 39 3.9 40 40 NW 14 22 30.21 1023 10 16 0.00 0.00
12:54 pm 12:54 Sunny 68 20 38 3.3 33 33 WNW 16 26 30.19 1022 10 16 0.00 0.00
1:54 pm 13:54 Mostly Sunny 69 20.6 38 3.3 32 32 WNW 16 26 30.18 1022 10 16 0.00 0.00
2:54 pm 14:54 Mostly Cloudy 72 22.2 37 2.8 28 28 WNW 20 31 30.16 1021 10 16 0.00 0.00
3:54 pm 15:54 Mostly Sunny 71 21.7 35 1.7 27 27 NW 20 31 30.14 1021 10 16 0.00 0.00
4:54 pm 16:54 Sunny 72 22.2 37 2.8 28 28 NW 17 28 30.14 1021 9 14 0.00 0.00
5:54 pm 17:54 Sunny 71 21.7 38 3.3 30 30 NNW 15 24 30.13 1020 9 14 0.00 0.00
6:54 pm 18:54 Sunny 70 21.1 38 3.3 31 31 NNW 15 24 30.12 1020 9 14 0.00 0.00
7:54 pm 19:54 Sunny 66 18.9 42 5.6 42 42 N 7 11 30.12 1020 9 14 0.00 0.00
8:54 pm 20:54 Clear 58 14.4 44 6.7 60 60 NNE 6 9 30.13 1020 9 14 0.00 0.00
9:54 pm 21:54 Clear 58 14.4 41 5 53 53 Calm 30.13 1020 10 16 0.00 0.00
10:54 pm 22:54 Clear 56 13.3 45 7.2 67 67 Calm 30.14 1021 9 14 0.00 0.00
11:54 pm 23:54 Clear 54 12.2 45 7.2 72 72 Calm 30.14 1021 9 14 0.00 0.00

Powered by AerisWeather